GW3668 Weather Reports


time (UTC)temp
C
wind
direction
speed
KPH
gust
KPH
rain 1hr
cm
rain 24hr
cm
rain mn
cm
humidity
%
barometer
mb
20260506155257 10 247 3.2 4.8 0.00 0.03 0.03 99 1021.0
20260506153404 10 66 0.0 3.2 0.05 0.03 0.03 99 1021.0
20260506152901 10 97 3.2 3.2 0.05 0.03 0.03 99 1020.9
20260506152358 10 112 0.0 3.2 0.00 0.03 0.03 99 1020.8
20260506151857 10 58 3.2 4.8 0.00 0.03 0.03 99 1020.6
20260506151353 10 69 0.0 3.2 0.00 0.03 0.03 99 1020.7
20260506150851 10 122 1.6 3.2 0.00 0.03 0.03 99 1020.5
20260506150347 10 89 0.0 3.2 0.00 0.03 0.03 99 1020.3
20260506145844 10 80 1.6 3.2 0.00 0.03 0.03 99 1020.2
20260506145340 10 49 0.0 3.2 0.00 0.03 0.03 99 1020.2
20260506144838 10 77 1.6 3.2 0.00 0.03 0.03 99 1020.2
20260506144334 10 86 4.8 4.8 0.00 0.03 0.03 99 1020.1
20260506143833 10 102 3.2 3.2 0.00 0.03 0.03 99 1020.0
20260506143329 9 52 3.2 4.8 0.00 0.03 0.03 99 1020.0
20260506142828 9 92 3.2 4.8 0.00 0.03 0.03 99 1020.0
20260506142325 10 92 1.6 3.2 0.00 0.03 0.03 99 1020.0
20260506141824 9 102 3.2 4.8 0.00 0.03 0.03 99 1020.4
20260506141321 9 131 3.2 4.8 0.00 0.03 0.03 99 1020.2
20260506140819 9 39 0.0 3.2 0.00 0.03 0.03 99 1020.2
20260506140316 10 121 0.0 3.2 0.00 0.03 0.03 99 1019.9
20260506135813 9 117 1.6 3.2 0.00 0.03 0.03 99 1019.9
20260506135309 9 94 3.2 3.2 0.00 0.03 0.03 99 1020.0
20260506134806 10 40 1.6 3.2 0.00 0.03 0.03 99 1019.9
20260506134302 10 86 3.2 4.8 0.00 0.03 0.03 99 1019.8
20260506133759 10 48 4.8 4.8 0.00 0.03 0.03 99 1019.8
20260506133256 10 78 0.0 3.2 0.00 0.03 0.03 99 1019.7
20260506132753 10 74 1.6 3.2 0.00 0.03 0.03 99 1019.6
20260506132250 9 91 3.2 3.2 0.00 0.03 0.03 99 1019.7
20260506131748 10 45 3.2 3.2 0.00 0.03 0.03 99 1019.8
20260506131243 10 110 0.0 4.8 0.00 0.03 0.03 99 1019.5
20260506130740 10 47 0.0 3.2 0.00 0.03 0.03 99 1019.4
20260506130237 10 79 3.2 3.2 0.05 0.03 0.03 99 1019.6
20260506125736 10 66 1.6 4.8 0.05 0.03 0.03 99 1019.5
20260506125233 10 104 0.0 1.6 0.00 0.00 0.00 99 1019.9
20260506124731 10 71 3.2 4.8 0.00 0.00 0.00 99 1019.5
20260506124228 10 86 3.2 4.8 0.00 0.00 0.00 99 1019.6
20260506123726 10 102 4.8 4.8 0.00 0.00 0.00 99 1019.5
20260506123224 10 48 3.2 3.2 0.00 0.00 0.00 99 1019.8
20260506122721 10 72 4.8 4.8 0.00 0.00 0.00 99 1019.7
20260506122218 10 83 3.2 3.2 0.00 0.00 0.00 99 1019.9
20260506121716 10 109 3.2 3.2 0.00 0.00 0.00 99 1019.5
20260506121213 10 89 3.2 3.2 0.05 0.00 0.00 99 1019.8
20260506120710 10 88 3.2 6.4 0.05 0.00 0.00 99 1019.8
20260506120208 10 120 3.2 3.2 0.00 0.00 0.00 99 1019.8
20260506115706 10 34 1.6 3.2 0.00 0.00 0.00 99 1019.6
20260506115204 10 109 3.2 4.8 0.00 0.00 0.00 99 1019.5
20260506114701 10 52 1.6 1.6 0.00 0.00 0.00 99 1019.6
20260506114158 10 97 0.0 3.2 0.00 0.00 0.00 99 1019.3
20260506113657 10 104 3.2 4.8 0.00 0.00 0.00 99 1019.3
20260506113154 10 92 1.6 3.2 0.00 0.00 0.00 98 1019.4
20260506112650 10 63 3.2 3.2 0.00 0.00 0.00 98 1019.0
20260506112148 10 46 3.2 3.2 0.00 0.00 0.00 98 1019.3
20260506111645 10 13 0.0 3.2 0.00 0.00 0.00 98 1019.3
20260506111143 10 108 3.2 3.2 0.00 0.00 0.00 98 1019.0
20260506110640 10 101 4.8 4.8 0.00 0.00 0.00 98 1019.3
20260506110137 10 84 1.6 3.2 0.00 0.00 0.00 98 1019.1
20260506105633 10 115 4.8 4.8 0.00 0.00 0.00 98 1019.1
20260506105130 10 130 0.0 1.6 0.00 0.00 0.00 98 1019.1
20260506104629 10 99 1.6 1.6 0.00 0.00 0.00 98 1018.8
20260506104126 10 135 0.0 1.6 0.00 0.00 0.00 98 1018.7
20260506103623 10 60 0.0 1.6 0.00 0.00 0.00 98 1018.8
20260506103120 10 80 0.0 3.2 0.00 0.00 0.00 98 1018.6
20260506102618 10 82 1.6 3.2 0.00 0.00 0.00 98 1018.7
20260506102115 10 78 0.0 1.6 0.00 0.00 0.00 98 1018.8
20260506101612 10 87 3.2 3.2 0.00 0.00 0.00 98 1018.4
20260506101109 10 70 1.6 3.2 0.00 0.00 0.00 98 1018.6
20260506100607 10 117 3.2 3.2 0.00 0.00 0.00 98 1018.4
20260506100105 10 114 3.2 3.2 0.00 0.00 0.00 98 1018.5
20260506095604 9 89 0.0 3.2 0.00 0.00 0.00 98 1018.4
20260506095100 9 115 1.6 3.2 0.00 0.00 0.00 98 1018.7
20260506094557 9 107 3.2 3.2 0.00 0.00 0.00 98 1018.5
20260506094055 9 109 3.2 3.2 0.00 0.00 0.00 98 1018.4
20260506093553 9 113 3.2 3.2 0.00 0.00 0.00 98 1018.5
20260506093051 9 113 3.2 3.2 0.00 0.00 0.00 98 1018.6
20260506092548 9 123 3.2 3.2 0.00 0.00 0.00 98 1018.5
20260506092045 9 147 1.6 3.2 0.00 0.00 0.00 98 1018.5
20260506091543 9 121 1.6 3.2 0.00 0.00 0.00 98 1018.5
20260506091040 9 87 0.0 3.2 0.00 0.00 0.00 98 1018.4
20260506090538 9 131 1.6 1.6 0.00 0.00 0.00 98 1018.4
20260506090034 9 107 1.6 3.2 0.00 0.00 0.00 98 1018.5
20260506085531 9 94 1.6 3.2 0.00 0.00 0.00 98 1018.6
20260506085027 9 59 1.6 3.2 0.00 0.00 0.00 98 1018.5
20260506084525 9 65 1.6 3.2 0.00 0.00 0.00 98 1018.8
20260506084020 8 92 3.2 3.2 0.00 0.00 0.00 99 1018.6
20260506083518 8 104 3.2 3.2 0.00 0.00 0.00 99 1018.5
20260506083015 8 89 3.2 3.2 0.00 0.00 0.00 99 1018.2
20260506082512 8 113 3.2 3.2 0.00 0.00 0.00 99 1018.3
20260506082007 8 97 3.2 3.2 0.00 0.00 0.00 99 1018.4
20260506081506 8 138 1.6 3.2 0.00 0.00 0.00 99 1018.3
20260506081003 8 118 1.6 3.2 0.00 0.00 0.00 99 1018.3
20260506080500 8 128 1.6 3.2 0.00 0.00 0.00 99 1018.3
20260506073444 7 151 1.6 3.2 0.00 0.00 0.00 99 1018.0
20260506072941 7 143 4.8 4.8 0.00 0.00 0.00 99 1018.0
20260506072438 7 154 3.2 4.8 0.00 0.00 0.00 99 1018.1
20260506071936 7 108 3.2 3.2 0.00 0.00 0.00 99 1017.8
20260506071433 7 142 3.2 3.2 0.00 0.00 0.00 99 1017.8
20260506070930 7 131 3.2 3.2 0.00 0.00 0.00 99 1017.8
20260506070427 7 181 1.6 1.6 0.00 0.00 0.00 99 1017.8
20260506062405 7 144 3.2 3.2 0.00 0.00 0.00 99 1017.6
20260506061900 7 145 0.0 3.2 0.00 0.00 0.00 98 1017.6
20260506061357 7 163 3.2 4.8 0.00 0.00 0.00 98 1017.5
20260506060855 7 136 3.2 3.2 0.00 0.00 0.00 98 1017.6
20260506060353 7 147 3.2 3.2 0.00 0.00 0.00 98 1017.6
20260506051325 8 151 3.2 4.8 0.00 0.00 0.00 97 1017.3
20260506050823 8 159 0.0 4.8 0.00 0.00 0.00 96 1017.6
20260506050320 8 118 1.6 3.2 0.00 0.00 0.00 96 1017.5
20260506044810 8 133 1.6 3.2 0.00 0.00 0.00 95 1017.4
20260506044308 9 155 3.2 3.2 0.00 0.00 0.00 95 1017.5
20260506043804 9 102 1.6 1.6 0.00 0.00 0.00 95 1017.2
20260506043302 10 120 3.2 3.2 0.00 0.00 0.00 95 1017.3
20260506042801 10 128 3.2 3.2 0.00 0.00 0.00 95 1017.0
20260506042259 10 115 1.6 3.2 0.00 0.00 0.00 94 1017.1
20260506041757 10 101 3.2 4.8 0.00 0.00 0.00 94 1017.0
20260506041254 10 83 1.6 3.2 0.00 0.00 0.00 94 1016.9
20260506040751 10 117 0.0 3.2 0.00 0.00 0.00 93 1016.8
20260506040248 10 58 1.6 1.6 0.00 0.00 0.00 93 1016.8
20260506035745 10 89 0.0 3.2 0.00 0.00 0.00 92 1016.6
20260506035242 10 54 3.2 3.2 0.00 0.00 0.00 91 1016.5
20260506034739 11 94 3.2 3.2 0.00 0.00 0.00 91 1016.4
20260506034236 11 89 1.6 3.2 0.00 0.00 0.00 91 1016.4
20260506033733 11 103 3.2 3.2 0.00 0.00 0.00 90 1016.4
20260506033230 11 66 0.0 3.2 0.00 0.00 0.00 90 1016.4
20260506032727 11 87 1.6 3.2 0.00 0.00 0.00 89 1016.2
20260506032224 11 61 0.0 3.2 0.00 0.00 0.00 88 1016.3
20260506031720 12 56 0.0 3.2 0.00 0.00 0.00 87 1016.2
20260506031218 12 48 1.6 3.2 0.00 0.00 0.00 86 1016.3
20260506030716 12 72 3.2 3.2 0.00 0.00 0.00 85 1016.4
20260506030213 13 63 1.6 3.2 0.00 0.00 0.00 84 1016.2
20260506025710 13 25 3.2 3.2 0.00 0.00 0.00 82 1016.2
20260506025206 14 32 0.0 1.6 0.00 0.00 0.00 80 1016.1
20260506024703 15 23 3.2 3.2 0.00 0.00 0.00 77 1016.4
20260506024159 15 51 0.0 3.2 0.00 0.00 0.00 79 1016.3
20260506023656 14 56 1.6 3.2 0.00 0.00 0.00 80 1016.5
20260506023153 15 59 1.6 3.2 0.00 0.00 0.00 80 1016.4
20260506022644 15 40 1.6 3.2 0.00 0.00 0.00 78 1016.1
20260506022141 15 11 0.0 3.2 0.00 0.00 0.00 79 1016.3
20260506021639 15 57 3.2 4.8 0.00 0.00 0.00 78 1016.2
20260506021136 15 92 3.2 4.8 0.00 0.00 0.00 77 1016.3
20260506020633 16 22 1.6 3.2 0.00 0.00 0.00 76 1016.3
20260506020131 15 45 3.2 4.8 0.00 0.00 0.00 77 1016.1
20260506015628 15 45 4.8 4.8 0.00 0.00 0.00 77 1016.1
20260506015125 16 29 1.6 3.2 0.00 0.00 0.00 76 1016.1
20260506014623 16 21 3.2 4.8 0.00 0.00 0.00 74 1016.1
20260506014118 16 66 0.0 3.2 0.00 0.00 0.00 75 1016.1
20260506013617 16 60 3.2 3.2 0.00 0.00 0.00 74 1016.3
20260506013113 16 32 3.2 4.8 0.00 0.00 0.00 74 1016.4
20260506012609 16 219 1.6 8.0 0.00 0.00 0.00 75 1016.2
20260506012106 16 57 3.2 4.8 0.00 0.00 0.00 75 1016.3
20260506011604 16 59 3.2 4.8 0.00 0.00 0.00 75 1016.3
20260506011059 16 46 3.2 6.4 0.00 0.00 0.00 76 1016.3
20260506010554 16 329 1.6 3.2 0.00 0.00 0.00 77 1016.2
20260506010050 16 247 3.2 8.0 0.00 0.00 0.00 75 1016.2
20260506005547 17 210 3.2 4.8 0.00 0.00 0.00 71 1016.5
20260506005043 17 51 3.2 3.2 0.00 0.00 0.00 72 1016.4
20260506004541 16 223 4.8 11.3 0.00 0.00 0.00 74 1016.4
20260506004037 16 10 3.2 4.8 0.00 0.00 0.00 75 1016.2
20260506003534 15 155 4.8 14.5 0.00 0.00 0.00 76 1016.3
20260506003030 15 55 9.7 9.7 0.00 0.00 0.00 76 1016.3
20260506002526 16 39 6.4 8.0 0.00 0.00 0.00 76 1016.3
20260506002022 16 27 3.2 16.1 0.00 0.00 0.00 76 1016.3
20260506001518 17 49 1.6 4.8 0.00 0.00 0.00 76 1016.5
20260506001016 16 68 3.2 9.7 0.00 0.00 0.00 74 1016.5
20260506000514 16 275 3.2 8.0 0.00 0.00 0.00 73 1016.5
20260506000011 16 255 4.8 8.0 0.00 0.00 0.00 75 1016.4
20260505235509 16 208 8.0 8.0 0.00 0.00 0.00 74 1016.6
20260505235005 16 45 6.4 17.7 0.00 0.00 0.00 77 1016.5
20260505234502 16 45 4.8 4.8 0.00 0.00 0.00 73 1016.6
20260505233959 17 37 3.2 4.8 0.00 0.00 0.00 75 1016.7
20260505233456 16 130 6.4 9.7 0.00 0.00 0.00 73 1016.7
20260505232953 16 134 3.2 6.4 0.00 0.00 0.00 74 1016.8
20260505232451 16 86 4.8 6.4 0.00 0.00 0.00 76 1016.9
20260505231948 16 205 4.8 19.3 0.00 0.00 0.00 77 1016.8
20260505231446 16 79 6.4 6.4 0.00 0.00 0.00 76 1016.8
20260505230944 16 21 4.8 17.7 0.00 0.00 0.00 78 1017.0
20260505230441 17 259 3.2 6.4 0.00 0.00 0.00 77 1016.8
20260505225937 16 307 6.4 14.5 0.00 0.00 0.00 81 1016.9
20260505225435 16 53 6.4 8.0 0.00 0.00 0.00 76 1017.1
20260505224930 16 66 4.8 9.7 0.00 0.00 0.00 79 1017.0
20260505224427 15 227 14.5 22.5 0.00 0.00 0.00 78 1017.2
20260505223925 16 234 11.3 12.9 0.00 0.00 0.00 79 1017.1
20260505223421 17 354 3.2 3.2 0.00 0.00 0.00 75 1017.0
20260505222918 16 245 6.4 9.7 0.00 0.00 0.00 77 1017.1
20260505222414 16 41 3.2 6.4 0.00 0.00 0.00 77 1017.2
20260505221910 17 211 4.8 6.4 0.00 0.00 0.00 76 1017.1
20260505221408 16 319 3.2 11.3 0.00 0.00 0.00 80 1017.1
20260505220905 16 179 4.8 8.0 0.00 0.00 0.00 78 1017.1
20260505220402 16 255 4.8 8.0 0.00 0.00 0.00 81 1017.2
20260505215859 16 124 3.2 12.9 0.00 0.00 0.00 79 1017.2
20260505215357 17 12 4.8 11.3 0.00 0.00 0.00 79 1017.3
20260505214855 16 106 4.8 6.4 0.00 0.00 0.00 80 1017.4
20260505214352 16 356 3.2 14.5 0.00 0.00 0.00 80 1017.2
20260505213849 16 65 0.0 6.4 0.00 0.00 0.00 78 1017.3
20260505213347 16 64 3.2 6.4 0.00 0.00 0.00 79 1017.6
20260505212843 16 256 8.0 9.7 0.00 0.00 0.00 80 1017.3
20260505212340 17 228 6.4 6.4 0.00 0.00 0.00 78 1017.4
20260505211836 15 153 9.7 14.5 0.00 0.00 0.00 81 1017.6
20260505211334 15 96 4.8 4.8 0.00 0.00 0.00 83 1017.4
20260505210830 15 18 4.8 6.4 0.00 0.00 0.00 82 1017.5
20260505210327 15 334 3.2 8.0 0.00 0.00 0.00 84 1017.5
20260505205824 15 85 4.8 6.4 0.00 0.00 0.00 85 1017.6
20260505205322 15 250 8.0 9.7 0.00 0.00 0.00 87 1017.5
20260505204819 13 165 3.2 6.4 0.00 0.00 0.00 87 1017.5
20260505204317 15 317 3.2 3.2 0.00 0.00 0.00 87 1017.4
20260505203814 14 141 6.4 8.0 0.00 0.00 0.00 87 1017.5
20260505203310 13 113 6.4 8.0 0.00 0.00 0.00 88 1017.6
20260505202807 13 105 3.2 4.8 0.00 0.00 0.00 91 1017.7
20260505202306 13 243 9.7 11.3 0.00 0.00 0.00 89 1017.8
20260505201759 13 264 3.2 4.8 0.00 0.00 0.00 89 1017.6
20260505201251 13 260 0.0 4.8 0.00 0.00 0.00 91 1017.7
20260505200749 13 195 3.2 8.0 0.00 0.00 0.00 91 1017.7
20260505200246 13 268 8.0 9.7 0.00 0.00 0.00 91 1017.6
20260505195741 13 142 3.2 4.8 0.00 0.00 0.00 90 1017.6
20260505195239 13 110 6.4 8.0 0.00 0.00 0.00 91 1017.7
20260505194736 13 52 4.8 4.8 0.00 0.00 0.00 91 1017.7
20260505194233 13 133 3.2 4.8 0.00 0.00 0.00 92 1017.5
20260505193728 13 223 1.6 3.2 0.00 0.00 0.00 93 1017.5
20260505193226 12 82 1.6 6.4 0.00 0.00 0.00 94 1017.4
20260505192724 12 223 4.8 6.4 0.00 0.00 0.00 93 1017.5
20260505192221 12 108 4.8 4.8 0.00 0.00 0.00 94 1017.7
20260505191719 12 230 0.0 3.2 0.00 0.00 0.00 93 1017.7
20260505191218 12 12 3.2 3.2 0.00 0.00 0.00 93 1017.6
20260505190713 12 47 3.2 4.8 0.00 0.00 0.00 94 1017.6
20260505190208 12 138 1.6 3.2 0.00 0.00 0.00 95 1017.6
20260505185705 12 72 3.2 4.8 0.00 0.00 0.00 96 1017.7
20260505185201 12 194 3.2 3.2 0.00 0.00 0.00 96 1017.6
20260505184657 11 175 1.6 3.2 0.00 0.00 0.00 96 1017.7
20260505184155 11 175 1.6 4.8 0.00 0.00 0.00 96 1017.6
20260505183651 11 105 3.2 3.2 0.00 0.00 0.00 96 1017.6
20260505183149 11 76 3.2 3.2 0.00 0.00 0.00 97 1017.7
20260505182644 12 196 1.6 3.2 0.00 0.00 0.00 96 1017.5
20260505182142 11 61 3.2 4.8 0.00 0.00 0.00 97 1017.7
20260505181638 11 41 1.6 6.4 0.00 0.00 0.00 97 1017.7
20260505181135 11 186 0.0 3.2 0.00 0.00 0.00 96 1017.5
20260505180626 11 59 3.2 3.2 0.00 0.00 0.00 97 1017.5
20260505180124 11 63 3.2 3.2 0.00 0.00 0.00 97 1017.4
20260505175619 11 51 0.0 3.2 0.00 0.00 0.00 97 1017.2
20260505175116 11 70 1.6 4.8 0.00 0.00 0.00 97 1017.4
20260505174612 11 71 1.6 6.4 0.00 0.00 0.00 97 1017.4
20260505174108 11 63 3.2 6.4 0.00 0.00 0.00 97 1017.1
20260505173605 11 202 4.8 4.8 0.00 0.00 0.00 98 1017.1
20260505173102 11 36 1.6 1.6 0.00 0.00 0.00 98 1017.2
20260505172600 11 280 1.6 3.2 0.00 0.00 0.00 98 1017.1
20260505172056 11 232 4.8 6.4 0.00 0.00 0.00 98 1017.3
20260505171551 11 238 4.8 4.8 0.00 0.00 0.00 98 1017.3
20260505171048 11 73 3.2 3.2 0.00 0.00 0.00 98 1017.2
20260505170544 11 232 3.2 3.2 0.00 0.00 0.00 98 1017.1
20260505170041 11 131 0.0 3.2 0.00 0.00 0.00 98 1017.2
20260505165531 11 212 1.6 3.2 0.00 0.00 0.00 98 1017.3
20260505165027 11 174 3.2 3.2 0.00 0.00 0.00 98 1017.3
20260505164523 11 223 3.2 4.8 0.00 0.00 0.00 97 1017.2
20260505164021 11 55 3.2 3.2 0.00 0.00 0.00 97 1017.2
20260505163519 11 302 0.0 1.6 0.00 0.00 0.00 97 1017.1
20260505163015 11 49 0.0 1.6 0.00 0.00 0.00 98 1017.2
20260505162509 11 74 0.0 3.2 0.00 0.00 0.00 98 1017.1
20260505162006 11 161 0.0 1.6 0.00 0.00 0.00 98 1017.1
20260505161502 11 103 0.0 1.6 0.00 0.00 0.00 98 1017.2
20260505160959 11 218 3.2 3.2 0.00 0.00 0.00 98 1017.1
20260505160457 11 49 0.0 3.2 0.00 0.00 0.00 98 1017.0